カタログに戻る

STARLINK-36715

運用中通信SSO
NORAD 67716·PAYLOAD·🇺🇸 United States

打ち上げ Feb 7, 2026 から Vandenberg Space Force Base

Loading…

次のパス (今後24時間)

TLE

最新Source: CelesTrak SupGP

元期: Sep 15, 2026, 04:00 UTC

1 67716C 26025Z   26258.16715278 -.00011479  00000+0 -35630-3 0  2583
2 67716  97.2854   8.0800 0001075  97.3365 276.3283 15.33449663    12

AllMySatでSTARLINK-36715をリアルタイム追跡

Download on the App Store